Wind_Speed
6 6 5 5 5 6 7 6 7 8 9 10 10 11 11 12 13 13 13 13 14 14 13 13 14 14 14 14 14 15 15 15 16 17 18 18 19 21 21 22 23 25
6 6 6 5 5 6 6 6 8 9 9 9 10 11 12 11 11 12 12 13 13 13 13 13 13 14 15 15 15 15 15 16 17 17 18 18 19 20 22 23 24 24
6 6 6 5 6 6 6 7 8 8 9 9 10 11 11 11 11 11 12 12 12 12 13 13 13 14 16 16 16 16 16 16 17 17 17 18 19 19 20 22 23 25
6 6 6 6 7 7 7 7 7 8 9 9 10 10 11 10 10 11 11 12 12 13 13 14 14 15 16 16 16 16 16 15 15 15 16 17 18 18 19 21 22 24
6 6 6 6 7 7 7 7 7 8 9 10 10 10 10 10 11 11 11 12 13 13 14 15 15 15 15 16 16 15 15 15 14 14 16 17 19 19 20 22 23 24
6 7 7 7 7 7 7 8 8 9 9 10 11 11 12 11 12 12 12 12 14 14 14 15 15 15 15 16 16 15 15 15 16 17 19 20 20 21 22 23 25 26
7 6 7 7 7 8 8 9 9 9 10 11 11 12 13 13 13 13 13 13 14 14 14 15 15 15 16 16 16 15 15 16 18 19 21 22 22 22 22 23 25 29
7 7 8 8 8 9 9 9 9 10 10 11 12 12 13 14 15 15 14 13 14 14 14 15 15 15 16 16 16 16 16 17 19 21 22 24 23 23 22 23 27 31
7 8 8 8 9 9 9 9 9 10 11 11 11 12 13 14 16 16 15 14 14 14 15 15 16 16 16 17 16 17 19 19 21 22 23 24 24 24 25 25 28 31
8 8 8 8 9 9 9 9 9 10 10 10 11 12 13 13 15 17 16 16 16 15 16 16 16 16 17 17 16 17 20 21 21 22 22 23 24 25 25 25 26 28
8 8 8 9 9 9 10 10 11 11 11 11 12 12 13 13 15 15 15 17 17 17 17 17 17 17 17 17 16 16 19 21 21 21 21 22 23 24 23 23 24 24
9 9 9 9 10 10 10 11 11 11 11 12 12 12 13 14 15 15 16 17 18 19 17 16 17 17 16 17 18 17 18 21 21 21 21 21 23 23 21 21 21 22
9 9 9 9 10 10 11 11 11 11 12 14 14 13 14 15 15 16 17 17 18 19 17 15 15 15 14 15 17 18 18 20 21 21 21 21 22 22 20 19 19 20
9 10 10 10 11 11 11 11 11 12 14 14 14 14 14 15 16 16 17 18 18 18 17 16 16 15 14 14 16 17 18 20 21 21 20 21 22 21 17 16 17 19
10 10 10 10 11 12 12 12 12 13 14 14 14 14 15 16 17 17 17 18 17 17 16 17 16 14 14 15 15 17 19 20 21 20 20 21 22 20 16 15 17 19
10 10 11 11 11 11 12 13 13 14 15 14 14 14 15 17 18 17 17 17 16 16 17 17 16 15 16 16 16 17 19 21 22 21 21 21 22 19 16 16 18 19
10 11 11 11 12 12 13 13 14 16 17 16 15 15 16 17 17 17 16 16 16 16 16 16 15 15 18 18 17 18 19 20 21 21 21 22 22 20 17 16 18 20
11 11 12 12 13 13 13 14 15 16 17 16 15 15 16 16 16 16 16 16 16 15 15 15 15 16 18 18 17 18 19 19 21 21 21 22 21 20 18 17 19 21
12 12 12 13 13 13 14 14 15 15 15 14 14 14 14 15 15 16 16 16 16 15 14 15 16 16 17 18 18 19 19 19 21 22 21 21 21 20 19 19 20 22
13 13 13 13 13 13 14 14 15 15 14 13 13 13 14 14 14 15 15 15 16 16 16 15 16 16 17 19 20 21 21 22 22 23 22 22 21 20 20 22 22 22
14 14 13 12 12 12 13 14 15 15 13 12 13 12 12 13 13 13 14 15 16 18 18 16 16 17 17 18 20 22 23 24 24 24 24 22 21 20 21 23 23 24
15 14 13 12 12 12 13 14 14 14 13 13 12 12 13 13 13 14 16 18 19 20 19 18 18 18 17 17 18 21 23 25 25 24 24 23 22 20 21 23 25 24
16 15 13 13 12 13 13 13 14 14 13 12 13 14 15 14 15 15 16 18 20 20 19 18 19 19 18 19 19 19 20 23 25 24 24 25 23 19 20 24 25 24
16 14 13 13 13 13 13 12 13 14 13 14 16 17 16 15 15 15 15 15 17 18 19 20 20 19 19 19 18 18 18 21 23 24 25 26 23 18 19 24 27 24
15 14 14 14 13 13 12 13 14 15 15 16 18 17 15 14 14 14 14 14 14 16 19 19 18 18 19 19 18 17 17 18 21 24 25 26 23 20 20 23 25 24
15 14 14 14 13 13 12 13 14 15 15 16 16 15 14 14 14 15 15 15 15 17 16 15 15 18 20 20 19 18 17 17 21 24 25 24 24 23 23 24 24 23
Wind_Direction
272 272 278 270 263 268 271 278 285 291 295 297 297 295 295 300 304 306 309 310 310 312 315 315 314 315 317 318 317 314 311 310 310 308 308 313 315 314 311 309 307 302
261 265 278 273 266 275 281 282 286 293 295 295 293 289 292 295 297 302 303 303 305 305 307 307 307 310 313 315 315 313 312 313 312 312 315 318 319 318 315 313 312 308
253 255 262 260 258 262 266 274 285 295 296 295 292 286 288 290 291 298 300 300 301 300 301 301 302 307 312 314 314 312 312 312 313 315 318 321 321 319 316 314 312 313
257 263 259 251 251 254 259 269 280 290 293 295 293 286 286 289 291 297 300 300 300 300 300 300 301 307 311 313 314 313 311 310 313 316 316 317 319 318 317 315 314 315
264 272 267 257 254 254 259 266 272 279 285 291 294 292 291 292 292 297 301 301 301 302 302 301 303 305 308 313 314 313 312 310 311 312 312 314 315 316 318 317 318 318
281 285 283 277 270 265 264 266 271 278 283 287 292 295 297 297 297 298 300 302 303 306 307 306 305 304 305 311 313 311 309 308 310 313 315 316 317 318 318 317 319 320
273 274 276 276 269 266 266 267 274 283 286 287 289 296 300 302 301 298 297 300 303 306 308 308 307 306 306 308 309 308 306 308 310 313 317 320 321 319 316 317 319 321
256 254 259 263 259 260 265 272 281 286 287 287 289 294 298 299 300 299 297 298 301 304 306 306 306 305 305 305 306 306 307 309 311 314 318 320 320 318 315 317 319 321
258 257 258 260 261 263 266 270 278 283 285 285 287 292 293 293 297 300 298 294 294 298 301 303 305 305 307 307 306 306 308 310 312 315 317 318 320 319 316 318 321 323
257 259 258 258 260 264 265 270 280 285 285 285 288 292 292 292 296 301 302 298 293 293 296 301 303 303 307 306 304 304 305 307 310 313 315 317 321 322 319 320 324 326
252 254 255 257 260 263 266 271 277 282 286 289 292 293 293 294 295 297 299 296 293 292 294 297 300 303 306 304 302 300 300 303 308 311 311 315 321 323 320 322 326 329
247 250 252 257 261 265 268 270 274 282 288 288 289 292 293 295 295 292 292 292 293 292 289 288 293 299 300 298 297 297 297 302 308 309 307 310 320 322 318 321 329 333
245 249 253 258 261 263 266 269 273 280 282 282 284 289 293 295 296 294 293 292 293 292 287 280 281 286 287 287 292 295 298 303 307 307 304 307 317 319 316 322 329 336
242 248 253 257 261 264 266 268 271 276 282 287 291 293 293 295 297 295 292 291 291 291 288 280 277 280 281 280 286 293 298 302 305 304 302 305 313 316 313 317 328 341
244 250 256 257 261 265 266 269 274 280 287 294 296 293 292 295 298 295 291 291 293 292 287 281 279 276 274 277 288 297 300 303 304 302 299 303 310 312 308 310 326 343
249 257 263 262 261 263 266 272 279 285 290 295 295 292 294 298 299 296 292 292 293 292 289 288 285 277 276 287 300 305 306 306 305 301 298 303 307 307 305 306 320 338
249 258 263 262 260 264 271 276 282 287 293 298 297 296 298 300 299 295 293 293 293 291 290 290 289 285 287 294 302 309 310 307 304 301 298 302 305 304 304 307 316 330
246 252 255 256 259 266 273 277 282 288 294 298 298 299 301 300 300 297 295 296 295 293 292 290 287 287 292 297 305 315 317 310 305 302 298 300 303 300 300 309 317 323
243 247 249 255 259 265 271 276 281 285 288 294 296 298 301 301 301 300 298 299 297 292 292 295 295 295 297 302 310 319 323 318 311 305 300 298 299 295 293 303 315 318
238 241 246 253 259 265 271 274 277 280 284 290 293 296 299 301 302 304 304 302 297 293 294 295 296 298 300 304 310 317 322 321 316 310 304 297 294 293 290 295 308 315
232 237 243 251 257 263 268 271 274 278 281 284 287 290 293 296 299 301 298 293 292 296 298 294 292 294 296 301 309 316 318 319 317 314 309 299 292 295 295 297 307 313
229 233 239 247 254 258 263 268 270 272 274 276 277 277 281 285 288 289 289 289 292 298 299 296 297 299 296 297 305 309 311 313 315 314 312 304 294 294 296 299 307 311
226 230 237 244 250 255 261 264 264 263 266 267 265 269 277 284 288 290 293 295 299 301 300 299 303 305 302 299 298 297 300 306 310 311 312 306 296 292 297 303 311 314
227 229 236 242 248 256 262 264 263 260 258 260 266 273 279 284 287 290 292 294 298 302 303 305 307 306 303 300 293 288 291 298 303 305 307 305 301 298 299 305 314 320
229 231 237 242 248 256 261 265 265 260 257 262 269 275 279 281 284 286 287 288 292 299 305 310 310 306 303 299 292 286 288 295 298 300 304 307 308 307 305 307 314 321
229 233 238 243 249 255 261 266 264 257 257 261 265 270 275 275 278 283 286 286 288 296 303 305 305 308 309 305 297 291 290 294 297 298 301 306 308 311 316 318 319 323
Height
1552 1551 1551 1550 1549 1549 1548 1547 1547 1546 1545 1544 1543 1542 1541 1540 1539 1538 1537 1536 1535 1535 1534 1533 1532 1531 1530 1529 1528 1528 1527 1526 1525 1524 1522 1521 1521 1520 1519 1518 1518 1516
1551 1550 1549 1549 1548 1547 1547 1546 1546 1545 1544 1543 1542 1541 1540 1540 1539 1538 1537 1536 1535 1534 1534 1533 1532 1531 1530 1528 1527 1526 1525 1524 1524 1523 1521 1520 1519 1519 1518 1517 1515 1514
1550 1549 1548 1548 1547 1547 1546 1546 1545 1544 1543 1542 1542 1541 1540 1539 1538 1537 1537 1536 1535 1534 1533 1532 1531 1530 1529 1527 1526 1525 1524 1523 1522 1521 1520 1519 1518 1517 1516 1515 1513 1512
1548 1548 1547 1547 1546 1546 1545 1545 1544 1544 1543 1542 1541 1540 1539 1538 1538 1537 1536 1535 1534 1533 1532 1531 1530 1529 1528 1526 1525 1524 1523 1522 1521 1520 1519 1518 1517 1516 1515 1513 1512 1510
1547 1546 1546 1546 1545 1544 1544 1544 1544 1543 1543 1541 1540 1539 1538 1538 1537 1536 1535 1534 1533 1532 1531 1530 1529 1528 1527 1525 1524 1523 1522 1521 1520 1519 1518 1517 1516 1515 1513 1512 1510 1509
1545 1545 1544 1544 1543 1543 1543 1543 1543 1542 1541 1541 1539 1538 1537 1536 1536 1535 1534 1533 1532 1531 1530 1529 1528 1527 1525 1524 1523 1522 1521 1520 1519 1518 1517 1515 1514 1513 1512 1510 1508 1507
1544 1543 1543 1543 1542 1542 1542 1541 1541 1541 1540 1540 1538 1537 1536 1535 1534 1533 1532 1531 1531 1530 1529 1528 1526 1525 1524 1523 1522 1521 1520 1519 1518 1516 1515 1514 1513 1512 1510 1509 1507 1505
1542 1542 1542 1542 1541 1541 1541 1541 1541 1540 1540 1539 1537 1537 1535 1534 1533 1532 1531 1530 1529 1528 1527 1526 1525 1524 1523 1522 1520 1520 1518 1518 1516 1515 1514 1512 1511 1510 1508 1507 1505 1503
1541 1541 1540 1540 1540 1540 1540 1540 1540 1539 1539 1538 1537 1536 1535 1533 1532 1530 1529 1528 1527 1527 1526 1525 1524 1522 1521 1520 1519 1518 1516 1516 1515 1514 1512 1511 1509 1508 1506 1505 1503 1500
1539 1539 1539 1539 1539 1539 1539 1539 1539 1538 1537 1536 1536 1535 1533 1532 1530 1529 1528 1527 1526 1525 1524 1523 1522 1521 1519 1518 1517 1516 1515 1514 1513 1512 1511 1509 1507 1506 1504 1502 1500 1498
1538 1538 1538 1538 1537 1538 1537 1538 1537 1536 1536 1535 1534 1533 1532 1531 1530 1528 1527 1525 1524 1523 1522 1520 1520 1518 1517 1516 1515 1514 1513 1512 1511 1510 1509 1507 1505 1504 1502 1500 1499 1496
1536 1536 1536 1536 1536 1536 1536 1536 1535 1534 1534 1533 1532 1532 1531 1530 1528 1527 1525 1524 1522 1520 1519 1518 1517 1516 1515 1514 1513 1512 1511 1510 1509 1508 1506 1505 1503 1502 1500 1499 1497 1495
1535 1535 1535 1535 1534 1534 1534 1533 1533 1533 1532 1531 1530 1529 1529 1528 1526 1525 1523 1522 1520 1518 1517 1515 1515 1514 1513 1512 1511 1510 1510 1508 1507 1506 1504 1503 1501 1500 1498 1497 1495 1493
1533 1533 1533 1533 1532 1532 1532 1531 1531 1531 1529 1528 1527 1527 1526 1525 1524 1523 1521 1520 1518 1516 1515 1513 1512 1511 1511 1510 1509 1508 1507 1506 1505 1504 1502 1501 1499 1498 1496 1495 1493 1491
1531 1531 1530 1531 1530 1530 1530 1529 1529 1528 1527 1526 1525 1525 1524 1523 1521 1520 1519 1517 1516 1515 1513 1512 1510 1509 1508 1508 1508 1507 1506 1504 1503 1502 1500 1498 1497 1495 1494 1493 1491 1488
1528 1529 1528 1528 1528 1528 1528 1527 1527 1526 1525 1524 1523 1523 1522 1521 1519 1518 1516 1516 1515 1513 1511 1510 1508 1507 1506 1506 1506 1505 1504 1503 1501 1500 1498 1496 1495 1493 1492 1490 1488 1486
1526 1527 1526 1526 1526 1526 1526 1525 1525 1524 1523 1522 1521 1520 1520 1518 1517 1516 1515 1514 1513 1512 1510 1509 1507 1506 1504 1505 1504 1503 1502 1500 1499 1497 1496 1494 1492 1491 1489 1487 1485 1483
1525 1525 1525 1525 1524 1524 1524 1523 1523 1522 1521 1520 1519 1519 1518 1516 1516 1514 1513 1512 1511 1510 1509 1508 1506 1505 1504 1503 1502 1501 1499 1498 1496 1495 1493 1492 1490 1488 1487 1485 1483 1481
1523 1523 1523 1523 1522 1522 1522 1521 1521 1520 1519 1519 1518 1517 1516 1515 1514 1513 1511 1511 1509 1508 1508 1506 1505 1503 1503 1502 1500 1499 1497 1495 1494 1492 1491 1489 1488 1486 1484 1482 1480 1478
1520 1520 1520 1520 1520 1520 1519 1519 1519 1518 1517 1517 1516 1515 1514 1513 1512 1511 1510 1509 1507 1506 1505 1504 1502 1501 1501 1500 1498 1497 1495 1493 1492 1490 1488 1487 1485 1483 1482 1480 1478 1476
1518 1518 1518 1518 1517 1518 1517 1517 1516 1515 1515 1514 1514 1513 1512 1511 1510 1509 1508 1507 1505 1503 1503 1502 1501 1499 1498 1497 1496 1495 1493 1492 1490 1488 1486 1484 1483 1481 1479 1477 1475 1474
1515 1515 1515 1515 1515 1515 1515 1514 1514 1513 1513 1512 1511 1511 1510 1509 1508 1507 1506 1504 1503 1502 1501 1500 1499 1497 1496 1495 1494 1492 1491 1490 1488 1486 1484 1482 1480 1478 1477 1475 1473 1471
1512 1512 1512 1513 1513 1513 1513 1512 1511 1511 1510 1510 1509 1508 1507 1506 1506 1504 1503 1502 1501 1500 1499 1497 1496 1495 1494 1492 1490 1489 1488 1487 1485 1484 1482 1481 1479 1477 1474 1472 1471 1469
1509 1510 1510 1510 1510 1510 1510 1510 1509 1509 1508 1507 1506 1505 1505 1504 1503 1502 1501 1500 1499 1498 1496 1495 1494 1493 1491 1489 1487 1486 1485 1483 1482 1481 1480 1479 1477 1475 1473 1470 1468 1466
1507 1508 1508 1508 1508 1508 1508 1508 1507 1507 1506 1505 1504 1503 1502 1502 1501 1500 1499 1498 1496 1495 1494 1492 1491 1489 1488 1486 1484 1483 1482 1481 1480 1479 1477 1477 1476 1473 1471 1468 1466 1464
1505 1505 1505 1505 1505 1505 1505 1505 1505 1504 1503 1502 1501 1501 1500 1499 1498 1497 1496 1495 1494 1493 1491 1490 1488 1486 1485 1483 1482 1480 1479 1478 1477 1476 1475 1475 1474 1471 1468 1466 1464 1462